#timestamp,LO_Frequency,Hit,StdDev 
1537160415.0,286046978.2,N
1537160415.9,286046978.2,N
1537160435.8,286046976.4,Y
1537160455.6,286046989.1,P
1537160475.4,286046988.0,P
1537160495.3,286046983.8,P
1537160515.1,286046984.8,Y
1537160535.9,286046995.7,P
1537160555.7,286046996.2,N
1537160575.5,286046995.6,N
1537160595.4,286046996.4,N
1537160615.2,286046996.4,N
1537160635.0,286046994.0,N
1537160635.9,286046994.0,N
1537160655.8,286046992.8,N
1537160675.6,286046991.0,Y
1537160695.5,286046994.9,P
1537160715.3,286046993.3,P
1537160735.1,286046991.7,P
1537160755.9,286046992.8,Y
1537160775.7,286046997.3,P
1537160795.5,286046995.3,N
1537160815.4,286046996.2,N
1537160835.2,286046994.0,Y
1537160855.1,286046997.8,P
1537160856.0,286046997.8,N
1537160875.8,286046996.2,P
1537160895.6,286046994.7,Y
1537160915.5,286046997.9,P
1537160935.3,286046995.4,P
1537160955.1,286046995.9,P
1537160975.9,286046993.7,Y
1537160995.7,286046999.4,P
1537161015.6,286046997.2,N
1537161035.4,286046995.0,P
1537161055.2,286046998.0,N
1537161075.1,286046994.9,Y
1537161076.0,286046994.9,P
1537161095.8,286046997.2,N
1537161115.7,286046997.3,N
1537161135.5,286046996.1,Y
1537161155.3,286047000.0,P
1537161175.2,286046998.4,N
1537161195.0,286046999.4,N
1537161195.9,286046999.4,N
1537161215.7,286046998.8,N
1537161235.6,286046998.7,N
1537161255.4,286046998.7,N
1537161275.3,286046998.3,N
1537161295.1,286047001.2,N
1537161296.0,286047001.2,N
1537161315.8,286047000.8,N
1537161335.7,286046998.3,N
1537161355.5,286046998.3,N
1537161375.3,286046998.7,N
1537161395.2,286046998.9,N
1537161415.0,286046997.3,N
1537161415.9,286046997.3,N
1537161435.8,286046995.0,Y
1537161455.6,286046995.3,P
1537161475.4,286046996.2,N
1537161495.3,286046993.7,P
1537161515.1,286046994.2,Y
1537161535.9,286046998.3,P
1537161555.7,286046996.5,P
1537161575.5,286046999.4,N
1537161595.4,286046997.1,N
1537161615.2,286046996.7,N
1537161635.0,286046999.1,N
1537161635.9,286046999.1,N
1537161655.8,286046997.2,N
1537161675.6,286046997.4,N
1537161695.4,286046999.3,N
1537161715.3,286046997.2,N
1537161735.1,286046995.3,Y
1537161755.9,286046997.5,P
1537161775.7,286046997.1,P
1537161795.5,286046995.5,P
1537161815.4,286046995.2,Y
1537161835.2,286046999.5,P
1537161855.1,286046999.5,N
1537161856.0,286046999.5,N
1537161875.8,286046997.7,N
1537161895.6,286046997.5,N
1537161915.5,286046995.8,Y
1537161935.3,286046994.9,P
1537161955.1,286046997.6,N
1537161975.9,286046997.0,N
1537161995.7,286046997.4,N
1537162015.6,286046995.4,Y
1537162035.4,286046999.0,P
1537162055.2,286047000.6,N
1537162075.1,286047001.1,N
1537162076.0,286047001.1,N
1537162095.8,286047000.1,N
1537162115.7,286047001.2,N
1537162135.5,286046999.4,N
1537162155.3,286046998.7,N
1537162175.2,286046997.6,N
1537162195.9,286046997.5,N
1537162215.7,286046996.2,N
1537162235.6,286046995.4,N
1537162255.4,286046996.2,N
1537162275.3,286046993.4,Y
1537162295.1,286046995.2,P
1537162296.0,286046995.2,N
1537162315.8,286046997.5,N
1537162335.7,286046997.1,N
1537162355.5,286046995.5,Y
1537162375.3,286046998.6,P
1537162395.2,286047000.8,N
1537162415.0,286046998.4,N
1537162415.9,286046998.4,N
1537162435.8,286046998.7,N
1537162455.6,286047000.9,N
1537162475.4,286047001.0,N
1537162495.3,286047000.2,N
1537162515.1,286047002.7,N
1537162535.8,286046999.7,N
1537162555.7,286047002.3,N
1537162575.5,286046999.9,N
1537162595.4,286046999.7,N
1537162615.2,286047000.8,N
1537162635.0,286047000.6,N
1537162635.9,286047000.6,N
1537162655.8,286046999.9,N
1537162675.6,286047000.7,N
1537162695.4,286047000.7,N
1537162715.3,286047000.3,N
1537162735.1,286046999.3,N
1537162755.9,286046999.6,N
1537162775.7,286046999.2,N
1537162795.5,286046996.5,N
1537162815.4,286046997.3,N
1537162835.2,286046997.7,N
1537162855.0,286046995.0,Y
1537162856.0,286046995.0,P
1537162875.8,286046997.5,N
1537162895.6,286046997.0,N
1537162915.5,286046997.3,N
1537162935.3,286046997.0,N
1537162955.1,286046996.5,N
1537162975.9,286046997.8,N
1537162995.7,286046997.3,N
1537163015.5,286046997.7,N
1537163035.4,286046998.8,N
1537163055.2,286046997.8,N
1537163075.1,286046997.5,N
1537163076.0,286046997.5,N
1537163095.8,286046995.7,Y
1537163115.6,286047001.0,P
1537163135.5,286046999.2,N
1537163155.3,286046997.7,N
1537163175.1,286046997.7,N
1537163195.9,286046995.3,Y
1537163215.7,286046997.5,P
1537163235.6,286046997.4,P
1537163255.4,286046999.4,N
1537163275.2,286046998.3,N
1537163295.1,286046998.2,N
1537163296.0,286046998.2,N
1537163315.8,286047000.2,N
1537163335.7,286047002.8,Y
1537163355.5,286047002.0,P
1537163375.3,286046999.7,N
1537163395.2,286047000.0,N
1537163415.9,286047000.0,N
1537163435.7,286046998.5,N
1537163455.6,286047000.8,N
1537163475.4,286046999.7,N
1537163495.2,286046999.1,N
1537163515.1,286046997.1,N
1537163516.0,286046997.1,N
1537163535.8,286046996.6,N
1537163555.7,286046999.1,N
1537163575.5,286046998.1,N
1537163595.3,286047000.1,N
1537163615.2,286047002.6,N
1537163635.0,286047002.8,N
1537163635.9,286047002.8,N
1537163655.7,286047002.7,N
1537163675.6,286047002.8,N
1537163695.4,286047000.4,N
1537163715.3,286047001.0,N
1537163735.1,286046998.4,N
1537163736.0,286046998.4,N
1537163755.8,286046998.1,N
1537163775.7,286046998.4,N
1537163795.5,286046998.8,N
1537163815.3,286046999.4,N
1537163835.2,286046996.7,N
1537163855.0,286046997.3,N
1537163855.9,286046997.3,N
1537163875.8,286046996.5,N
1537163895.6,286046997.2,N
1537163915.4,286046995.1,N
1537163935.3,286046995.2,N
1537163955.1,286046995.6,N
1537163975.9,286046995.9,N
1537163995.7,286046993.3,N
